Location: ????? ???
(30.6095°N, 60.5606°E)
Time: 14:53:30
(UTC+00:00)

Daily predictions for brighter satellites

Satellite Brightness Start Highest point End
(mag) Time Altitude Azimuth Time Altitude Azimuth Time Altitude Azimuth
CZ-2C R/B 3.1 14:56:51 10° N 15:02:12 71° WNW 15:07:40 10° SSW
Meteor 1-27 4.4 14:56:28 10° S 15:02:16 86° E 15:08:07 10° N
SAR-Lupe-4 3.5 15:03:20 10° NNE 15:06:53 64° ESE 15:10:25 10° S
Cosmos 1763 Rocket 3.7 15:02:06 10° N 15:07:03 51° ENE 15:12:01 10° SSE
Cosmos 2227 4.4 15:01:51 10° SSW 15:07:36 85° WNW 15:13:22 10° NNE
Cosmos 2266 Rocket 4.0 15:03:28 10° N 15:09:35 61° E 15:15:33 10° SSE
FALCON 9 R/B 4.0 15:08:54 10° W 15:14:54 63° SSW 15:35:56 12° SE
USA 267 3.7 15:09:18 10° SSE 15:15:47 63° SW 15:22:17 10° NW
Cosmos 2151 3.7 15:12:42 10° NNW 15:16:52 57° W 15:21:00 10° S
Cosmos 468 Rocket 4.0 15:12:42 10° N 15:17:52 70° ENE 15:23:03 10° SSE
Meteor 2-16 Rocket 4.5 15:12:08 10° N 15:18:14 65° E 15:24:18 10° SSE
Meteor 2-21 Rocket 4.4 15:12:32 10° N 15:18:40 80° E 15:24:48 10° S
SAR-Lupe-1 4.3 15:16:00 10° N 15:19:34 73° WNW 15:23:07 10° SSW
CSL-04 Rocket 3.6 15:14:57 10° SSE 15:20:10 73° ENE 15:25:28 10° N
Fermi 4.4 15:18:03 10° WSW 15:21:53 39° S 15:25:04 14° ESE
Cosmos 1655 Rocket 4.1 15:15:55 10° N 15:22:09 87° W 15:28:21 10° S
ASTRO E2 2.7 15:19:01 10° W 15:23:00 81° N 15:26:58 10° E
X-37B 3.7 15:22:26 10° NW 15:23:50 12° NNW 15:25:15 10° N
BREEZE-M DEB (TANK) 3.8 15:22:40 10° WNW 15:25:14 31° SW 15:30:35 10° SSE
Haruka 4.5 15:08:02 10° WNW 15:30:15 70° SSW 15:34:35 15° ESE
Cosmos 1842 Rocket 3.6 15:31:15 10° S 15:35:37 58° E 15:40:02 10° NNE
Meteor 2-15 4.4 15:29:47 10° S 15:35:48 72° E 15:41:49 10° N
Ariane Rocket 3.9 15:36:22 16° ESE 15:39:32 31° ENE 15:43:57 10° N
CZ-3C R/B 3.0 15:37:40 10° SSW 15:39:46 19° SSE 15:41:07 17° SE
MetOp-A 4.1 15:35:59 10° SSE 15:41:18 76° ENE 15:46:39 10° N
OBJECT-B 1.2 15:39:40 20° SE 15:41:32 44° ENE 15:44:38 10° N
Cosmos 1408 Rocket 3.9 15:38:28 10° N 15:42:40 43° E 15:45:37 18° SSE
MOS 1-B Rocket 4.2 15:35:22 10° NNE 15:42:43 71° ESE 15:48:57 10° S
Cosmos 1862 4.0 15:39:37 10° NNE 15:43:18 34° E 15:45:10 22° SE
BREEZE-M R/B 3.8 15:43:20 10° WSW 15:46:46 36° NW 15:49:11 10° NNE
BREEZE-M DEB (TANK) 4.3 15:48:42 10° N 15:50:03 13° NE 15:50:50 12° ENE
BREEZE-M (TANK) 3.8 15:37:25 10° NW 15:51:39 71° NE 15:54:01 25° ESE
USA 229 DEB 4.0 15:44:23 10° NNW 15:51:57 78° ENE 15:58:00 18° SE
USA 229 4.0 15:44:28 10° NNW 15:52:02 77° ENE 15:58:03 19° SE
Okean 3 Rocket 4.0 15:47:58 10° NNW 15:52:21 62° W 15:56:40 10° S
Cosmos 921 Rocket 3.2 15:51:25 10° N 15:55:32 47° ENE 15:57:13 30° SE
Cosmos 1814 Rocket 4.4 15:50:38 10° N 15:55:35 44° ENE 15:58:01 26° SE
Resurs 1-3 4.2 15:54:18 27° ESE 15:56:02 38° ENE 16:00:06 10° N
[s.n.48335] 4.2 15:54:13 10° WSW 15:56:41 34° NW 15:59:08 10° NNE
[s.n.48334] 4.2 15:54:18 10° WSW 15:56:45 34° NW 15:59:12 10° NNE
[s.n.48332] 4.2 15:54:23 10° WSW 15:56:50 34° NW 15:59:17 10° NNE
[s.n.48333] 4.2 15:54:27 10° WSW 15:56:50 33° NW 15:59:13 10° NNE
[s.n.48331] 4.3 15:54:32 10° WSW 15:56:58 33° NW 15:59:26 10° NNE
[s.n.48330] 4.3 15:54:41 10° WSW 15:57:04 33° NW 15:59:28 10° NNE
[s.n.48329] 4.3 15:54:41 10° WSW 15:57:08 33° NW 15:59:36 10° NNE
[s.n.48328] 4.3 15:54:50 10° WSW 15:57:14 32° NW 15:59:36 10° NNE
[s.n.48327] 4.3 15:54:54 10° WSW 15:57:16 32° NW 15:59:40 10° NNE
[s.n.48326] 4.3 15:54:55 10° WSW 15:57:20 33° NW 15:59:46 10° NNE
ERS-2 4.4 15:55:18 10° NNW 15:58:22 26° WNW 16:01:26 10° SW
Cosmos 1437 Rocket 3.2 15:59:20 34° ESE 15:59:47 35° E 16:03:20 10° NNE
[s.n.48324] 4.5 15:57:38 10° WSW 16:00:03 30° NW 16:02:28 10° NNE
Cosmos 1603 3.6 15:57:51 10° NNW 16:03:31 77° ENE 16:06:53 25° SSE
USA 186 3.0 16:04:08 15° SSW 16:06:02 32° W 16:08:28 10° NNW
Cosmos 1553 Rocket 3.9 16:00:11 10° S 16:06:12 67° E 16:12:18 10° NNE
Nadezhda 2 Rocket 4.4 16:00:08 10° N 16:06:14 70° E 16:10:35 20° SSE
Cosmos 1244 Rocket 4.5 16:02:10 10° N 16:08:25 67° E 16:12:30 22° SSE
NOSS 3-1 (A) 4.3 16:02:25 10° NNW 16:10:34 87° WSW 16:16:58 22° SSE
Cosmos 1486 Rocket 4.0 16:05:49 10° S 16:11:01 62° ESE 16:16:17 10° NNE
Cosmos 1743 Rocket 3.8 16:08:34 10° N 16:12:46 49° E 16:13:33 43° ESE
Cosmos 968 Rocket 3.4 16:08:19 10° SSW 16:13:35 85° ESE 16:18:50 10° NNE
Lacrosse 5 rocket 2.1 16:11:35 10° NW 16:15:50 50° WSW 16:17:42 30° S
SJ-6B 3.4 16:13:36 21° S 16:15:52 53° W 16:19:39 10° NNW
Cosmos 540 Rocket 3.8 16:10:56 10° NNW 16:15:58 61° WSW 16:19:21 20° S
Cosmos 1417 Rocket 4.4 16:14:07 13° S 16:19:49 74° E 16:26:00 10° N
IRS-1A Rocket 4.2 16:17:20 26° SSE 16:20:44 88° ENE 16:26:32 10° NNW
Cosmos 1500 Rocket 3.4 16:21:12 10° N 16:25:36 74° E 16:26:20 58° SSE
Cosmos 2221 4.5 16:24:15 10° SW 16:27:57 28° W 16:31:40 10° NNW
Resurs 01 Rocket 1.8 16:27:51 50° E 16:28:04 51° ENE 16:32:22 10° N
Cosmos 2208 Rocket 4.0 16:29:31 10° NNW 16:34:59 89° WSW 16:36:36 47° SSE
IGS 5A 3.8 16:38:14 52° NE 16:38:14 52° NE 16:41:47 10° N
Milstar 3 3.9 16:24:35 10° SW 16:39:54 54° SSE 16:43:44 36° ESE
Cosmos 1943 3.9 16:38:13 10° NNW 16:43:36 47° WSW 16:46:08 28° SSW
Cosmos 1844 Rocket 3.3 16:38:32 10° SW 16:43:58 55° WNW 16:49:25 10° N
Landsat 7 3.8 16:47:32 64° ENE 16:47:32 64° ENE 16:52:01 10° N
SL-4 R/B 4.2 16:44:09 10° NNW 16:47:28 19° NE 16:47:49 19° NE
Meteor 1-26 Rocket 4.3 16:53:06 59° E 16:53:06 59° E 16:58:26 10° NNE
CZ-2C R/B 3.7 16:48:44 10° N 16:53:12 75° WNW 16:53:27 72° WSW
MetOp-B 4.0 16:56:14 70° ENE 16:56:15 70° ENE 17:01:34 10° N
Cosmos 1844 4.4 16:51:37 10° SW 16:57:14 54° WNW 17:02:50 10° N
Sich 1 3.9 16:56:44 10° N 16:59:43 43° N 16:59:43 43° N
Cosmos 1503 Rocket 4.0 17:00:53 69° SW 17:01:24 77° WNW 17:06:36 10° NNE
ASTRO E2 4.2 16:59:28 10° W 17:01:45 33° W 17:01:45 33° W
ERS-1 Rocket 4.5 17:11:16 26° NE 17:11:16 26° NE 17:14:00 10° N
SPOT 1/Viking Rocket 3.8 17:17:29 65° N 17:17:29 65° N 17:21:53 10° NNW
ARIANE 5 R/B 4.3 17:19:25 28° N 17:19:25 28° N 17:21:34 10° N
ATLAS 5 CENTAUR R/B 3.7 17:15:09 10° N 17:19:51 28° NE 17:19:51 28° NE
Cosmos 1745 Rocket 4.3 17:15:40 10° NNW 17:21:43 59° W 17:22:36 54° SW
Cosmos 1709 Rocket 4.0 17:18:51 10° N 17:24:15 69° NNE 17:24:15 69° NNE
Cosmos 2315 Rocket 4.0 17:25:44 75° WSW 17:26:04 77° W 17:32:27 10° N
SPOT 5 4.4 17:37:03 32° N 17:37:03 32° N 17:39:51 10° N
Terra 3.9 17:57:09 23° N 17:57:09 23° N 17:58:57 10° N
CZ-4C R/B 4.1 17:54:32 10° N 18:01:15 33° NE 18:01:15 33° NE
Cosmos 2278 Rocket 3.9 18:12:45 28° N 18:12:45 28° N 18:15:21 10° NNE
ATLAS 5 CENTAUR R/B 4.3 18:59:06 10° NW 19:01:23 23° NW 19:01:23 23° NW
CZ-4C R/B 4.3 19:42:30 10° NW 19:46:26 32° NW 19:46:26 32° NW
ATLAS 2AS CENTAUR R/B 4.1 19:49:08 10° NNW 19:53:10 33° N 19:53:10 33° N
USA 281 4.5 20:44:24 34° NE 20:44:24 34° NE 20:49:06 10° N
CZ-2D R/B 4.0 21:11:53 10° NNE 21:14:14 26° NNE 21:14:14 26° NNE
SL-16 R/B 3.6 21:22:03 41° NE 21:22:03 41° NE 21:26:54 10° N
Lacrosse 5 4.0 21:35:25 23° NE 21:35:25 23° NE 21:37:21 10° NE
Resurs 1-4 Rocket 3.8 21:43:14 10° N 21:45:43 28° N 21:45:43 28° N
ADEOS II 3.5 21:44:13 10° NNE 21:47:25 35° NE 21:47:25 35° NE
ADEOS Rocket 4.5 21:58:31 20° SE 22:02:54 41° ENE 22:09:49 10° N
Milstar 3 4.3 22:11:14 24° SE 22:11:14 24° SE 22:14:12 10° SE
IRS-1D 4.3 22:06:06 10° NNE 22:10:07 51° NNE 22:10:07 51° NNE
Cosmos 1697 Rocket 3.9 22:21:26 32° ESE 22:22:01 32° ESE 22:26:57 10° NE
Cosmos 1980 Rocket 4.4 22:28:44 14° SE 22:31:24 18° E 22:35:11 10° ENE
Cosmos 1975 Rocket 4.5 22:39:21 32° NNW 22:39:21 32° NNW 22:41:46 10° N
MSX 4.2 22:34:21 10° NNE 22:40:04 59° ESE 22:41:14 49° SSE
Cosmos 1626 3.8 22:42:30 32° NE 22:42:30 32° NE 22:44:54 10° NNE
Cosmos 2227 Rocket 4.3 22:39:46 10° N 22:44:19 25° ENE 22:48:51 10° ESE
Cosmos 1932 4.5 22:45:47 63° W 22:46:16 65° WNW 22:52:37 10° NNE
COSMOS 2455 4.1 22:42:43 10° N 22:48:20 39° ENE 22:53:54 10° SE
Cosmos 2297 Rocket 3.7 22:43:18 10° N 22:48:29 36° ENE 22:53:38 10° SE
ARIANE 5 R/B 2.7 22:47:45 10° NNE 22:52:52 65° ESE 22:53:47 54° SSE
Cosmos 2016 Rocket 3.9 22:46:46 10° N 22:53:03 87° E 22:55:16 43° S
IRS-P3 4.0 22:49:07 10° NNE 22:54:29 90° E 22:55:05 71° SSW
Cosmos 1459 Rocket 4.0 22:48:28 10° NNW 22:54:35 58° W 22:54:45 58° W
CZ-2D R/B 4.3 22:54:12 10° NW 22:55:33 13° NW 22:55:33 13° NW
COSMOS 2441 4.4 22:54:16 10° NNE 22:59:11 75° ESE 22:59:56 61° SSE
Cosmos 2173 Rocket 4.2 22:55:32 10° NNW 23:01:25 49° W 23:01:28 49° W
OAO 2 Rocket 4.4 23:03:38 32° SSE 23:03:57 33° SSE 23:08:40 10° E
SL-16 R/B 4.1 23:07:08 18° WNW 23:07:08 18° WNW 23:09:27 10° NW
CZ-2C R/B 2.3 23:06:19 33° NNE 23:06:19 33° NNE 23:08:40 10° ENE
Cosmos 1953 2.8 23:05:18 10° N 23:08:21 50° NNW 23:08:21 50° NNW
Cosmos 1802 Rocket 4.1 23:04:53 10° NNW 23:10:49 53° W 23:11:51 47° WSW
SL-08 R/B 3.9 23:07:30 10° SSE 23:12:11 55° ENE 23:16:47 10° N
Gblst 52 Del rocket 4.0 23:08:29 10° NW 23:14:14 66° SW 23:19:38 10° SSE
Tianhe-1 4.1 23:13:07 10° NNW 23:14:28 12° N 23:15:48 10° NNE
Lacrosse 5 3.8 23:14:37 16° NW 23:15:41 17° NW 23:18:55 10° N
Cosmos 614 Rocket 4.3 23:13:12 10° N 23:18:15 63° ENE 23:23:18 10° SSE
BREEZE-M DEB (TANK) 3.5 23:18:30 28° NW 23:18:30 28° NW 23:20:44 10° NNE
Delta 2 Rocket 3.8 23:20:07 37° SE 23:20:07 37° SE 23:22:16 10° ESE
Cosmos 1624 Rocket 4.3 23:17:23 30° S 23:19:56 66° ESE 23:25:13 10° NNE
Cosmos 2123 Rocket 4.5 23:19:30 37° W 23:20:21 38° W 23:26:04 10° NNW
Cosmos 2219 3.7 23:15:20 10° NNW 23:21:00 63° ENE 23:26:39 10° SSE
IDEFIX/ARIANE 42P 3.3 23:18:36 10° N 23:23:19 35° WNW 23:23:51 34° W
ADEOS II 4.0 23:25:46 10° NW 23:28:21 14° WNW 23:28:21 14° WNW
Lacrosse 4 Rocket 1.5 23:28:53 42° SSW 23:30:23 85° ESE 23:34:52 10° NNE
Cosmos 1025 Rocket 4.1 23:30:56 29° WNW 23:30:56 29° WNW 23:34:16 10° NNW
GP-B 3.6 23:26:40 10° NNW 23:30:47 38° W 23:30:50 38° W
Cosmos 304 Rocket 4.2 23:34:31 37° W 23:35:29 41° WNW 23:40:01 10° N
Cosmos 2360 4.3 23:34:32 33° SW 23:36:58 59° WNW 23:42:38 10° NNE
Spot 4 Rocket 3.9 23:33:10 10° N 23:38:18 73° WNW 23:41:16 25° SSW
Cosmos 2056 Rocket 3.3 23:37:17 29° SSW 23:39:58 78° WNW 23:45:05 10° NNE
Cosmos 1544 Rocket 3.9 23:37:16 10° NNW 23:41:23 41° W 23:42:25 35° SW
CZ-2C R/B 2.8 23:38:26 10° NNE 23:42:26 82° E 23:44:58 22° S
CZ-4B R/B 4.4 23:41:08 10° N 23:45:27 31° WNW 23:46:54 26° WSW
ADEOS Rocket 4.1 23:45:28 24° SW 23:48:18 31° W 23:54:47 10° NW
Cosmos 2251 Rocket 3.8 23:43:33 10° NNW 23:48:29 44° WSW 23:53:24 10° S
OAO 3 Rocket 3.3 23:44:34 16° WNW 23:48:29 81° NNE 23:53:26 10° ESE
CZ-2D R/B 4.2 23:44:26 10° N 23:48:30 39° WNW 23:50:02 29° WSW
Cosmos 1300 2.7 23:46:14 10° N 23:50:03 83° E 23:53:51 10° S
Cosmos 1536 Rocket 4.3 23:49:36 29° WSW 23:50:36 32° W 23:54:33 10° NNW
USA 234 3.2 23:44:20 10° NE 23:50:55 88° SE 23:55:52 19° SW
Centaur D AC-29 2.8 23:52:06 13° S 23:52:06 13° S 23:53:11 10° SSE
Cosmos 1371 Rocket 4.2 23:49:08 26° SW 23:51:53 51° WNW 23:56:59 10° N
GOES 2 Rocket 4.1 23:51:54 24° SSW 23:52:02 24° SSW 23:55:25 10° SSE
[s.n.48335] 2.2 23:51:52 15° NW 23:53:54 88° WSW 23:56:31 10° SE
[s.n.48334] 2.3 23:51:55 15° NW 23:53:59 88° WSW 23:56:36 10° SE
[s.n.48333] 2.2 23:52:14 18° NW 23:53:59 87° WSW 23:56:34 10° SE
[s.n.48332] 2.2 23:52:02 15° NW 23:54:05 87° SW 23:56:41 10° SE
[s.n.48331] 2.2 23:52:09 15° NW 23:54:13 87° SW 23:56:50 10° SE
[s.n.48330] 2.2 23:52:28 18° NW 23:54:15 87° SW 23:56:50 10° SE
[s.n.48329] 2.2 23:52:20 15° NW 23:54:24 86° SW 23:57:00 10° SE
[s.n.48328] 2.2 23:52:37 18° NW 23:54:24 86° SW 23:56:59 10° SE
[s.n.48327] 2.2 23:52:41 18° NW 23:54:28 86° SW 23:57:03 10° SE
[s.n.48326] 2.3 23:52:25 14° NW 23:54:36 86° SW 23:57:14 10° SE
